Regional Weather Roundup
Issued by NWS

Home | Current Version | Previous Version | Graphics & Text | Print | Product List | Glossary On
Versions: 1 2 3 4 5 6 7 8 9 10 11 12 13 14 15 16 17 18 19 20 21 22 23 24 25 26 27 28 29 30 31 32 33 34 35 36 37 38 39 40 41 42 43 44 45 46 47 48 49 50
000
ASUS43 KOAX 290802
RWRNE

WEATHER ROUNDUP FOR NEBRASKA
NATIONAL WEATHER SERVICE OMAHA NE
300 AM CDT SAT APR 29 2017

NOTES: SATELLITE DATA IS BEING USED TO AUGMENT CLOUD COVER ABOVE
       12000 FEET.
       "FAIR" INDICATES FEW OR NO CLOUDS BELOW 12,000 FEET WITH NO
       SIGNIFICANT WEATHER AND/OR OBSTRUCTIONS TO VISIBILITY.

  * THESE STATIONS DO NOT REPORT WEATHER SUCH AS RAIN...SNOW OR FOG.

NEZ001>004-019>022-054>056-290900-
NEBRASKA PANHANDLE

CITY           SKY/WX    TMP DP  RH WIND       PRES   REMARKS
SCOTTSBLUFF    CLOUDY    34  29  82 N3        30.16R
ALLIANCE       CLOUDY    33  29  85 N6        30.15R WCI  28
CHADRON        CLOUDY    32  29  88 W3        30.19S
KIMBALL        CLOUDY    32  31  96 N5        30.12F WCI  27
SIDNEY         CLOUDY    33  30  88 N9        30.11F WCI  25
$$

NEZ057>060-069>072-079>082-290900-
SOUTHWEST NEBRASKA

CITY           SKY/WX    TMP DP  RH WIND       PRES   REMARKS
NORTH PLATTE   CLOUDY    39  31  72 NE13      30.10R WCI  31
IMPERIAL       CLOUDY    37  32  82 N13       30.07F WCI  29
LEXINGTON      CLOUDY    39  33  78 N12       30.07S WCI  32
MCCOOK         CLOUDY    38  34  85 N13       30.06S WCI  30
OGALLALA       CLOUDY    39  32  75 NE12      30.12R WCI  32
$$

NEZ005>010-023>029-035>040-094-290900-
NORTH CENTRAL NEBRASKA

CITY           SKY/WX    TMP DP  RH WIND       PRES   REMARKS
VALENTINE      CLOUDY    41  22  46 NE10      30.14F
AINSWORTH      CLOUDY    39  29  66 NE8       30.14F WCI  33
BROKEN BOW     CLOUDY    40  32  73 N12       30.07F WCI  33
O`NEILL        CLOUDY    40  28  61 N9        30.12F WCI  34
ORD            CLOUDY    41  31  67 N13       30.07F
THEDFORD       CLOUDY    40  31  70 NE10      30.14R WCI  34
$$

NEZ041-046>049-061>064-073>077-083>087-290900-
SOUTH CENTRAL NEBRASKA

CITY           SKY/WX    TMP DP  RH WIND       PRES   REMARKS
GRAND ISLAND   CLOUDY    39  37  92 N15       30.03F WCI  31
AURORA         CLOUDY    40  38  91 N14       30.01F WCI  32
HASTINGS       CLOUDY    40  35  83 NE16      30.01F WCI  31
HEBRON         CLOUDY    41  37  84 NE14G21   29.96F
HOLDREGE       CLOUDY    38  35  91 N21       30.02F WCI  27
KEARNEY *      CLOUDY    37  34  87 NE18G25   30.04F WCI  27
YORK           CLOUDY    41  37  87 N20       30.01S
$$

NEZ011>018-030>034-042>045-290900-
NORTHEAST NEBRASKA

CITY           SKY/WX    TMP DP  RH WIND       PRES   REMARKS
NORFOLK        CLOUDY    42  33  70 N13       30.07F
ALBION         CLOUDY    42  33  71 N10       30.06F
BLAIR          CLOUDY    42  37  80 N15       29.99F
FREMONT        CLOUDY    42  37  80 N7        30.00F
TEKAMAH        CLOUDY    43  37  79 N16       30.03F
WAYNE          CLOUDY    40  34  77 N14       30.07F WCI  33
$$

NEZ050>053-065>068-078-088>093-290900-
SOUTHEAST NEBRASKA

CITY           SKY/WX    TMP DP  RH WIND       PRES   REMARKS
LINCOLN        CLOUDY    43  38  82 NE16      30.01F
OMAHA EPPLEY   CLOUDY    43  37  79 N16       30.00F
BEATRICE       CLOUDY    42  39  88 NE14G21   29.96S
FALLS CITY     CLOUDY    43  40  89 NE13      29.95R
NEBRASKA CITY  CLOUDY    42  38  86 NE17G24   29.97R
PLATTSMOUTH    CLOUDY    42  36  78 NE12G18   29.98F
$$

NEZ044-045-051>053-067-290900-
OMAHA AREA

CITY           SKY/WX    TMP DP  RH WIND       PRES   REMARKS
OMAHA EPPLEY   CLOUDY    43  37  79 N16       30.00F
BLAIR          CLOUDY    42  37  80 N15       29.99F
FREMONT        CLOUDY    42  37  80 N7        30.00F
MILLARD        CLOUDY    45  39  78 NE9       29.99F
OFFUTT AFB     CLOUDY    43  36  76 N10G18    29.99F
PLATTSMOUTH    CLOUDY    42  36  78 NE12G18   29.98F
WAHOO          CLOUDY    43  36  77 N16       30.00F
$$



USA.gov is the U.S. government's official web portal to all federal, state and local government web resources and services.